Regional Weather Roundup
Issued by NWS

Home | Current Version | Previous Version | Graphics & Text | Print | Product List | Glossary On
Versions: 1 2 3 4 5 6 7 8 9 10 11 12 13 14 15 16 17 18 19 20 21 22 23 24 25 26 27 28 29 30 31 32 33 34 35 36 37 38 39 40 41 42 43 44 45 46 47 48 49 50
000
ASUS43 KDTX 010010
RWRMI
MICHIGAN HOURLY REGIONAL WEATHER ROUNDUP
NATIONAL WEATHER SERVICE DETROIT/PONTIAC MI
800 PM EDT MON AUG 31 2015

NOTE: "FAIR" INDICATES FEW OR NO CLOUDS BELOW 12,000 FEET WITH NO
SIGNIFICANT WEATHER AND/OR OBSTRUCTION TO VISIBILITY.

MIZ047>049-052>055-059>063-066>070-074>076-081>083-010100-
SOUTHEAST LOWER MICHIGAN

CITY           SKY/WX    TMP DP  RH WIND       PRES   REMARKS
ADRIAN         CLEAR     77  67  71 NW5       30.05S
6HR MIN TEMP:  77; 6HR MAX TEMP:  87;

ALMA           CLEAR     73  70  89 CALM      30.05S
ANN ARBOR      CLEAR     79  67  66 N3        30.04S
BAD AXE        CLEAR     72  65  79 SW3       30.05S
CARO           CLEAR     70  67  91 CALM      30.04S
DETROIT CITY   CLEAR     82  64  54 CALM      30.04S
6HR MIN TEMP:  82; 6HR MAX TEMP:  85;

DETROIT        CLEAR     81  66  60 NW5       30.04S
6HR MIN TEMP:  81; 6HR MAX TEMP:  85;

FLINT          CLEAR     78  66  66 W3        30.05S
6HR MIN TEMP:  76; 6HR MAX TEMP:  83;

GROSSE ILE     CLEAR     75  72  88 CALM      30.03S FOG
HILLSDALE      CLEAR     77  68  74 CALM      30.07S
6HR MIN TEMP:  77; 6HR MAX TEMP:  85;

HOWELL         CLEAR     75  67  74 CALM      30.05S HAZE
6HR MIN TEMP:  75; 6HR MAX TEMP:  82;


CITY           SKY/WX    TMP DP  RH WIND       PRES   REMARKS
JACKSON        CLEAR     75  69  81 CALM      30.05F
6HR MIN TEMP:  75; 6HR MAX TEMP:  82;

LAMBERTVILLE   CLEAR     78  71  79 CALM      30.04S
6HR MIN TEMP:  78; 6HR MAX TEMP:  87;

LANSING        CLEAR     77  67  71 CALM      30.05F
6HR MIN TEMP:  76; 6HR MAX TEMP:  81;

LAPEER         FAIR      71  68  89 CALM      30.05S
6HR MIN TEMP:  71; 6HR MAX TEMP:  80;

MASON          CLEAR     74  65  74 CALM      30.06S HAZE
MONROE         CLEAR     77  69  77 CALM      30.03S
6HR MIN TEMP:  77; 6HR MAX TEMP:  87;

MT. CLEMENS    CLEAR     74  65  71 CALM      30.03S
6HR MIN TEMP:  74; 6HR MAX TEMP:  83;

PONTIAC        CLEAR     77  65  66 W3        30.05S
6HR MIN TEMP:  76; 6HR MAX TEMP:  82;

PORT HOPE        N/A     70  68  93 S3        30.02F
6HR MIN TEMP:  69; 6HR MAX TEMP:  78;

PORT HURON     CLEAR     70  68  94 CALM      30.04S
TRI CITIES     CLEAR     75  67  76 SW3       30.05S
6HR MIN TEMP:  75; 6HR MAX TEMP:  79;

MIDLAND        FAIR      74  65  73 CALM      30.04R
TROY           CLEAR     81  63  54 W3        30.06S
SAGINAW HB     CLEAR     73  68  83 CALM      30.04S
$$
MIZ043>046-050>051-056>058-064>065-071>073-077>080-010100-
SOUTHWEST LOWER MICHIGAN

CITY           SKY/WX    TMP DP  RH WIND       PRES   REMARKS
BATTLE CREEK   CLEAR     78  68  71 NW3       30.06S
6HR MIN TEMP:  78; 6HR MAX TEMP:  83;

BENTON HARBOR  CLEAR     74  68  81 CALM      30.03S
6HR MIN TEMP:  74; 6HR MAX TEMP:  79;

BIG RAPIDS     CLEAR     71  67  87 CALM      30.04S
6HR MIN TEMP:  71; 6HR MAX TEMP:  78;

COLDWATER      CLEAR     78  68  72 CALM      30.05F
6HR MIN TEMP:  78; 6HR MAX TEMP:  84;

FREMONT        FAIR      72  68  88 CALM      30.03F
HOLLAND        CLEAR     73  67  81 CALM      30.04F
6HR MIN TEMP:  73; 6HR MAX TEMP:  80;

GRAND RAPIDS   CLEAR     76  67  73 W6        30.04F
6HR MIN TEMP:  76; 6HR MAX TEMP:  81;

IONIA          FAIR      77  67  72 CALM      30.04S
6HR MIN TEMP:  77; 6HR MAX TEMP:  82;

KALAMAZOO      CLEAR     78  66  66 W5        30.05F
6HR MIN TEMP:  78; 6HR MAX TEMP:  83;

LUDINGTON      CLEAR     71  66  83 S3        30.03F
6HR MIN TEMP:  71; 6HR MAX TEMP:  76;

MARSHALL       CLEAR     75  68  79 CALM      30.05S
6HR MIN TEMP:  75; 6HR MAX TEMP:  83;

MOUNT PLEASANT CLEAR     76  66  71 SW3       30.03F
6HR MIN TEMP:  76; 6HR MAX TEMP:  82;

MUSKEGON       MOCLDY    72  64  76 S5        30.04S
6HR MIN TEMP:  72; 6HR MAX TEMP:  77;

SOUTH HAVEN    CLEAR     73  67  81 CALM      30.04S
$$
MIZ016>042-010100-
NORTHERN LOWER MICHIGAN

CITY           SKY/WX    TMP DP  RH WIND       PRES   REMARKS
ALPENA         CLEAR     67  64  90 E5        30.01S
6HR MIN TEMP:  67; 6HR MAX TEMP:  82;

BEAVER ISLAND  CLEAR     68  65  88 S6        29.99S
6HR MIN TEMP:  68; 6HR MAX TEMP:  72;

BELLAIRE       CLEAR     76  68  76 CALM      30.00S
6HR MIN TEMP:  76; 6HR MAX TEMP:  82;

CADILLAC       CLEAR     72  66  82 SW5       30.05S
CHARLEVOIX     CLEAR     71  67  88 W6        30.03S
FRANKFORT      CLEAR     71  66  84 S3        30.02S
GAYLORD        CLEAR     75  65  70 SW5       30.03S
6HR MIN TEMP:  75; 6HR MAX TEMP:  82;

GRAYLING       CLEAR     74  65  72 CALM      30.04R
6HR MIN TEMP:  74; 6HR MAX TEMP:  84;

HARBOR SPRINGS CLEAR     70  65  85 CALM      30.00F
HOUGHTON LAKE  CLEAR     75  64  68 SW5       30.04S
6HR MIN TEMP:  75; 6HR MAX TEMP:  82;

MANISTEE       CLEAR     72  64  78 SW5       30.03S
OSCODA         CLEAR     73  66  79 S5        30.01R
6HR MIN TEMP:  73; 6HR MAX TEMP:  82;

PELLSTON       CLEAR     71  66  84 W3        30.00F
6HR MIN TEMP:  71; 6HR MAX TEMP:  81;

ROGERS CITY    CLEAR     66  64  91 CALM      30.02S FOG
TRAVERSE CITY  CLEAR     78  66  66 SW3       30.00R
6HR MIN TEMP:  78; 6HR MAX TEMP:  83;

$$
MIZ007>008-015-010100-
EASTERN UPPER MICHIGAN

CITY           SKY/WX    TMP DP  RH WIND       PRES   REMARKS
KINROSS        CLEAR     70  64  83 S6        29.99S
6HR MIN TEMP:  70; 6HR MAX TEMP:  75;

MACKINAC ISLAN CLEAR     67  65  91 S6        30.00S
6HR MIN TEMP:  67; 6HR MAX TEMP:  72;

NEWBERRY       CLOUDY    67  65  93 S13G18    29.98R FOG
6HR MIN TEMP:  67; 6HR MAX TEMP:  75;

S. S. MARIE    CLEAR     71  64  78 S6        29.98S
6HR MIN TEMP:  71; 6HR MAX TEMP:  77;

MUNISING         N/A     74  65  73 S10G17    29.91F
6HR MIN TEMP:  74; 6HR MAX TEMP:  86;

$$
MIZ004>006-011>014-085-010100-
CENTRAL UPPER MICHIGAN

CITY           SKY/WX    TMP DP  RH WIND       PRES   REMARKS
MANISTIQUE     MOCLDY    65  64  95 S7        29.97S FOG
6HR MIN TEMP:  65; 6HR MAX TEMP:  67;

ESCANABA       CLEAR     70  63  78 S10G17    29.94S
6HR MIN TEMP:  70; 6HR MAX TEMP:  72;

MENOMINEE      CLEAR     73  64  73 SW6       29.96S
6HR MIN TEMP:  73; 6HR MAX TEMP:  79;

SAWYER-GWINN   CLEAR     79  68  69 SW10      29.93S
$$
MIZ001>003-009>011-084-010100-
WESTERN UPPER MICHIGAN

CITY           SKY/WX    TMP DP  RH WIND       PRES   REMARKS
IRON MOUNTAIN  CLEAR     77  63  61 SW10      29.95R
6HR MIN TEMP:  77; 6HR MAX TEMP:  85;

HOUGHTON       CLEAR     79  65  62 SW3       29.87S
6HR MIN TEMP:  78; 6HR MAX TEMP:  86;

IRONWOOD       CLEAR     75  66  73 SW8G16    29.88R
6HR MIN TEMP:  75; 6HR MAX TEMP:  82;

$$

ABBREVIATIONS USED IN REMARKS
   TC - TEMPERATURE IN CELSIUS
  WCI - WIND CHILL INDEX
   HX - HEAT INDEX
  VSB - VISIBILITY




USA.gov is the U.S. government's official web portal to all federal, state and local government web resources and services.